Flag for U.S.A. Weather past 2 weeks in Baton Rouge, Louisiana, U.S.A.

Now
72 °F

Sunny.


Feels Like: 77 °F
Forecast: 56 / 80 °F
Wind: 12 mph from South

Location: Baton Rouge Metropolitan - Ryan Field

Current Time: Mar 28, 2015 at 7:07:41 PM

Latest Report: Mar 28, 2015 at 5:53 PM


Visibility: 10 mi

Pressure: 30.13 "Hg

Humidity: 38%

Dew point: 45 °F

Location of Baton RougeLocation

Historic Weather in Baton Rouge — Graph

°F

Baton Rouge temperature yesterday

Maximum temperature yesterday: 69 °F (at 5:53 PM)
Minimum temperature yesterday: 45 °F (at 6:53 AM)
Average temperature yesterday: 58 °F

Past Weeks' High & Low Weather Summary

 TemperatureHumidityPressure
High85 °F (Mar 17, 3:53 PM)100% (Mar 25, 7:01 AM)30.25 "Hg (Mar 25, 7:01 AM)
Low43 °F (Mar 28, 6:53 AM)32% (Mar 27, 2:53 PM)29.82 "Hg (Mar 26, 4:00 PM)
Average67 °F74%30.05 "Hg
* Reported Mar 13 5:53 PM — Mar 28 5:53 PM, Baton Rouge, Weather by CustomWeather, © 2015

Note: Actual official high and low records may vary slightly from our data, if they occured in-between our weather recording intervals... More about our weather records

Advertising

Baton Rouge weather history for previous 24 hours

 ConditionsComfort  
Time TempWeatherWind HumidityBarometerVisibility
5:53 PM
Sat, Mar 28
72 °FSunny.12 mph38%30.13 "Hg10 mi
4:53 PM73 °FSunny.8 mph37%30.12 "Hg10 mi
3:53 PM73 °FSunny.N/A34%30.13 "Hg10 mi
2:53 PM72 °FSunny.No wind37%30.15 "Hg10 mi
1:53 PM69 °FSunny.3 mph36%30.19 "Hg10 mi
12:53 PM66 °FSunny.3 mph39%30.21 "Hg10 mi
11:53 AM63 °FSunny.5 mph41%30.23 "Hg10 mi
10:53 AM60 °FSunny.8 mph41%30.25 "Hg10 mi
9:53 AM56 °FSunny.10 mph49%30.24 "Hg10 mi
8:53 AM50 °FSunny.6 mph71%30.24 "Hg10 mi
7:53 AM44 °FClear.6 mph85%30.24 "Hg10 mi
6:53 AM43 °FClear.No wind86%30.21 "Hg10 mi
5:53 AM44 °FClear.3 mph85%30.18 "Hg10 mi
4:53 AM44 °FClear.3 mph89%30.17 "Hg10 mi
3:53 AM46 °FClear.No wind83%30.17 "Hg10 mi
2:53 AM47 °FClear.6 mph80%30.16 "Hg10 mi
1:53 AM47 °FClear.No wind86%30.18 "Hg10 mi
12:53 AM50 °FClear.No wind74%30.18 "Hg10 mi
11:53 PM
Fri, Mar 27
53 °FClear.6 mph64%30.16 "Hg10 mi
10:53 PM55 °FClear.5 mph62%30.14 "Hg10 mi
9:53 PM59 °FClear.9 mph54%30.11 "Hg10 mi
8:53 PM57 °FClear.No wind67%30.06 "Hg10 mi
7:53 PM62 °FSunny.3 mph48%30.03 "Hg9 mi
Weather by CustomWeather, © 2015

See weather overviewHow to use our weather pages